Probability
0 0 0 0 0 0 0 0 0 0 0 0 0 0 0 0 0 0 0 0 0 0 0 0 0 0 0 0 0 0 0 10 29 16 13 0 0 0 0 0 0 0 0 0
0 0 0 0 0 0 0 0 0 0 0 0 0 0 0 0 0 0 0 0 0 0 0 0 0 0 0 0 0 0 16 16 10 3 0 0 0 0 0 0 0 0 0 0
0 0 0 0 0 0 0 0 0 0 0 0 0 0 0 0 0 0 0 0 0 0 0 0 0 0 0 0 0 3 19 10 3 0 0 0 0 0 0 0 0 0 0 0
0 0 0 0 0 0 0 0 0 0 0 0 0 0 0 0 0 0 0 0 0 0 0 0 0 0 0 0 0 13 13 3 0 0 0 0 0 0 0 0 0 0 0 0
0 0 0 0 0 0 0 0 0 0 0 0 0 0 0 0 0 0 0 0 0 0 0 0 0 0 0 0 0 13 0 3 0 0 0 0 0 0 0 0 0 0 0 0
0 0 0 0 0 0 0 0 0 0 0 0 0 0 0 0 0 0 0 0 0 0 0 0 0 0 0 0 0 0 0 0 0 0 0 0 0 0 0 0 0 0 0 0
0 0 0 0 0 0 0 0 0 0 0 0 0 0 0 0 0 0 0 0 0 0 0 0 0 0 0 0 0 0 0 0 0 0 0 0 0 0 0 0 0 0 0 0
0 0 0 0 0 0 0 0 0 0 0 0 0 0 0 0 0 0 0 0 0 0 0 0 0 0 0 0 0 0 0 0 0 0 0 0 0 0 0 0 0 0 0 0
0 0 0 0 0 0 0 0 0 0 0 0 0 0 0 0 0 0 0 0 0 0 0 0 0 0 0 0 0 0 0 0 0 0 0 0 0 0 0 0 0 0 0 0
0 0 0 0 0 0 0 0 0 0 0 0 0 0 0 0 0 0 0 0 0 0 0 0 0 0 0 0 0 0 0 0 0 0 0 0 0 0 0 0 0 0 0 0
0 0 0 0 0 0 0 0 0 0 0 0 0 0 0 0 0 0 0 0 0 0 0 0 0 0 0 0 0 0 0 0 0 0 0 0 0 0 0 0 0 0 0 0
0 0 0 0 0 0 0 0 0 0 0 0 0 0 0 0 0 0 0 0 0 0 0 0 0 0 0 0 0 0 0 0 0 0 0 0 0 0 0 0 0 0 0 0
0 0 0 0 0 0 0 0 0 0 0 0 0 0 0 0 0 0 0 0 0 0 0 0 0 0 0 0 0 0 0 0 0 0 0 0 0 0 0 0 0 0 0 0
0 0 0 0 0 0 0 0 0 0 0 0 0 0 0 0 0 0 0 0 0 0 0 0 0 0 0 0 0 0 0 0 0 0 0 0 0 0 0 0 0 0 0 0
0 0 0 0 0 0 0 0 0 0 0 0 0 0 0 0 0 0 0 0 0 0 0 0 0 0 0 0 0 0 0 0 0 0 0 0 0 0 0 0 0 0 0 0
0 0 0 0 0 0 0 0 0 0 0 0 0 0 0 0 0 0 0 0 0 0 0 0 0 0 0 0 0 0 0 0 0 0 0 0 0 0 0 0 0 0 0 0
0 0 0 0 0 0 0 0 0 0 0 0 0 0 0 0 0 0 0 0 0 0 0 0 0 0 0 0 0 0 0 0 0 0 0 0 0 0 0 0 0 0 0 0
0 0 0 0 0 0 0 0 0 0 0 0 0 0 0 0 0 0 0 0 0 0 0 0 0 0 0 0 0 0 0 0 0 0 0 0 0 0 0 0 0 0 0 0
0 0 0 0 0 0 0 0 0 0 0 0 0 0 0 0 0 0 0 0 0 0 0 0 0 0 0 0 0 0 0 0 0 0 0 0 0 0 0 0 0 0 0 0
0 0 0 0 0 0 0 0 0 0 0 0 0 0 0 0 0 0 0 0 0 0 0 0 0 0 0 0 0 0 0 0 0 0 0 0 0 0 0 0 0 0 0 0
0 0 0 0 0 0 0 0 0 0 0 0 0 0 0 0 0 0 0 0 0 0 0 0 0 0 0 0 0 0 0 0 0 0 0 0 0 0 0 0 0 0 0 0
0 0 0 0 0 0 0 0 0 0 0 0 0 0 0 0 0 0 0 0 0 0 0 0 0 0 0 0 0 0 0 0 0 0 0 0 0 0 0 0 0 0 0 0
0 0 0 0 0 0 0 0 0 0 0 0 0 0 0 0 0 0 0 0 0 0 0 0 0 0 0 0 0 0 0 0 0 0 0 0 0 0 0 0 0 0 0 0
0 0 0 0 0 0 0 0 0 0 0 0 0 0 0 0 0 0 0 0 0 0 0 0 0 0 0 0 0 0 0 0 0 0 0 0 0 0 0 0 0 0 0 0
0 0 0 0 0 0 0 0 0 0 0 0 0 0 0 0 0 0 0 0 0 0 0 0 0 0 0 0 0 0 0 0 0 0 0 0 0 0 0 0 0 0 0 0
0 0 0 0 0 0 0 0 0 0 0 0 0 0 0 0 0 0 0 0 0 0 0 0 0 0 0 0 0 0 0 0 0 0 0 0 0 0 0 0 0 0 0 0
Height
5694 5700 5702 5703 5706 5710 5712 5713 5715 5716 5716 5717 5720 5723 5724 5725 5727 5728 5729 5729 5730 5733 5737 5739 5742 5745 5748 5749 5751 5754 5756 5757 5757 5759 5760 5761 5762 5762 5763 5764 5765 5765 5765 5765
5690 5693 5695 5698 5700 5702 5703 5704 5705 5705 5705 5707 5711 5713 5715 5715 5717 5717 5718 5718 5719 5722 5725 5728 5731 5735 5738 5741 5742 5745 5747 5748 5749 5750 5752 5753 5754 5755 5756 5757 5758 5758 5758 5757
5683 5688 5689 5691 5693 5694 5695 5696 5696 5695 5695 5696 5698 5702 5706 5705 5706 5706 5707 5707 5708 5710 5713 5716 5720 5724 5728 5731 5734 5736 5739 5740 5741 5742 5744 5746 5746 5747 5748 5749 5750 5750 5750 5750
5678 5681 5683 5685 5686 5686 5687 5687 5685 5684 5683 5684 5686 5685 5694 5693 5695 5695 5694 5694 5695 5697 5700 5703 5707 5712 5717 5721 5724 5728 5730 5732 5733 5734 5736 5738 5739 5740 5741 5741 5742 5743 5742 5742
5673 5675 5676 5678 5678 5677 5677 5676 5675 5672 5669 5670 5672 5667 5676 5676 5679 5680 5681 5680 5681 5683 5687 5691 5695 5700 5705 5709 5714 5718 5721 5723 5725 5727 5729 5730 5731 5732 5733 5734 5735 5735 5735 5734
5667 5668 5669 5670 5669 5668 5666 5665 5662 5658 5654 5654 5658 5649 5655 5661 5660 5661 5663 5665 5666 5668 5673 5678 5682 5687 5692 5697 5702 5707 5711 5714 5717 5720 5722 5723 5724 5725 5725 5726 5727 5727 5727 5726
5660 5661 5661 5661 5660 5659 5656 5653 5648 5643 5640 5639 5638 5631 5639 5644 5639 5639 5642 5645 5649 5654 5659 5665 5670 5675 5681 5687 5692 5698 5702 5705 5709 5712 5714 5715 5716 5717 5718 5719 5719 5719 5719 5717
5654 5655 5655 5653 5651 5649 5645 5641 5637 5630 5625 5622 5617 5616 5624 5625 5619 5617 5619 5624 5631 5639 5645 5651 5657 5663 5670 5676 5682 5688 5692 5696 5700 5704 5707 5708 5709 5710 5711 5711 5711 5711 5710 5709
5646 5648 5647 5645 5642 5639 5634 5629 5624 5617 5611 5605 5602 5602 5605 5606 5600 5597 5599 5604 5612 5622 5630 5638 5645 5652 5659 5666 5672 5678 5683 5687 5691 5695 5698 5700 5701 5702 5703 5703 5703 5702 5701 5700
5639 5639 5639 5636 5633 5628 5624 5619 5613 5605 5598 5592 5589 5589 5590 5588 5583 5581 5582 5586 5594 5605 5615 5624 5633 5641 5649 5656 5662 5668 5673 5678 5682 5686 5690 5692 5694 5695 5695 5695 5695 5694 5693 5691
5631 5632 5631 5629 5625 5620 5615 5610 5602 5595 5589 5582 5576 5579 5577 5574 5571 5569 5570 5573 5579 5590 5601 5611 5621 5630 5638 5646 5653 5660 5665 5669 5674 5678 5682 5685 5686 5687 5687 5687 5686 5685 5684 5682
5625 5625 5625 5623 5618 5612 5607 5601 5594 5587 5579 5572 5565 5567 5566 5562 5560 5559 5561 5563 5567 5577 5588 5599 5610 5620 5629 5638 5645 5652 5657 5661 5666 5670 5674 5677 5679 5680 5679 5679 5678 5677 5676 5674
5620 5620 5618 5616 5613 5606 5600 5594 5586 5577 5570 5563 5557 5557 5555 5552 5550 5550 5551 5554 5558 5567 5578 5590 5601 5612 5621 5630 5637 5644 5649 5654 5658 5663 5667 5670 5671 5672 5672 5671 5670 5669 5667 5665
5616 5615 5613 5610 5604 5598 5593 5587 5579 5571 5562 5556 5551 5547 5547 5543 5542 5542 5543 5547 5553 5561 5571 5583 5595 5605 5614 5623 5630 5637 5642 5647 5652 5657 5660 5663 5664 5664 5664 5663 5662 5661 5658 5656
5611 5611 5608 5604 5599 5594 5588 5581 5574 5566 5559 5552 5547 5542 5540 5537 5536 5537 5539 5544 5549 5558 5568 5579 5591 5601 5610 5618 5625 5631 5637 5642 5647 5651 5654 5656 5657 5657 5657 5656 5654 5652 5649 5646
5607 5606 5604 5600 5596 5590 5585 5579 5572 5565 5558 5551 5545 5541 5538 5536 5535 5537 5540 5544 5550 5558 5568 5579 5589 5598 5607 5615 5622 5628 5633 5638 5642 5646 5648 5650 5650 5650 5649 5648 5646 5643 5640 5637
5603 5602 5601 5598 5593 5589 5584 5578 5572 5565 5559 5553 5548 5545 5541 5540 5539 5540 5543 5548 5555 5563 5572 5581 5590 5598 5606 5613 5619 5624 5629 5634 5637 5640 5642 5642 5642 5642 5641 5639 5637 5634 5631 5629
5600 5599 5597 5596 5593 5588 5586 5578 5573 5568 5563 5558 5554 5551 5548 5547 5546 5548 5552 5557 5563 5570 5577 5585 5592 5599 5606 5611 5617 5622 5626 5629 5632 5634 5635 5635 5635 5633 5632 5630 5628 5626 5623 5619
5598 5597 5596 5594 5591 5589 5586 5581 5576 5572 5568 5565 5562 5559 5557 5556 5557 5558 5562 5566 5571 5577 5583 5589 5595 5600 5606 5611 5615 5619 5622 5624 5626 5627 5628 5627 5627 5626 5624 5623 5621 5618 5614 5610
5596 5595 5595 5594 5592 5590 5589 5584 5580 5578 5574 5571 5569 5568 5567 5566 5567 5569 5570 5573 5577 5582 5586 5591 5595 5600 5604 5608 5611 5614 5617 5619 5620 5621 5621 5621 5620 5619 5617 5615 5612 5609 5605 5600
5594 5594 5595 5594 5593 5592 5591 5588 5586 5584 5582 5578 5576 5575 5575 5574 5575 5576 5577 5580 5582 5585 5589 5592 5596 5599 5602 5605 5608 5610 5612 5614 5615 5615 5615 5615 5614 5612 5610 5607 5604 5599 5595 5590
5591 5593 5593 5594 5594 5595 5592 5590 5589 5587 5585 5583 5582 5581 5580 5581 5581 5582 5583 5584 5586 5588 5591 5593 5596 5598 5601 5603 5606 5607 5609 5610 5610 5610 5610 5609 5607 5605 5602 5598 5594 5590 5585 5579
5589 5591 5592 5594 5595 5593 5592 5591 5590 5589 5588 5587 5586 5585 5585 5585 5586 5586 5587 5588 5589 5591 5593 5594 5596 5598 5600 5602 5604 5605 5606 5606 5606 5605 5604 5602 5600 5597 5594 5590 5585 5580 5575 5569
5586 5588 5589 5591 5592 5592 5592 5591 5591 5590 5589 5588 5588 5588 5588 5588 5588 5588 5589 5590 5591 5592 5593 5595 5596 5598 5599 5600 5601 5602 5602 5601 5600 5599 5597 5595 5592 5589 5585 5580 5576 5570 5564 5558
5583 5584 5586 5588 5589 5590 5590 5590 5590 5590 5589 5588 5588 5588 5588 5588 5588 5589 5589 5590 5591 5591 5593 5594 5595 5596 5597 5597 5598 5598 5597 5596 5595 5593 5591 5588 5584 5580 5576 5571 5566 5560 5554 5547
5578 5580 5582 5584 5586 5587 5588 5588 5589 5589 5588 5588 5588 5588 5588 5588 5588 5588 5588 5589 5590 5590 5591 5592 5593 5594 5594 5594 5594 5594 5593 5591 5589 5586 5583 5579 5576 5571 5567 5562 5556 5550 5544 5537
Wind_Speed
32 31 30 31 31 31 30 30 30 31 32 34 34 36 35 35 36 37 41 45 48 48 46 44 42 40 41 42 42 41 43 44 45 44 42 41 40 40 39 37 35 35 35 36
29 29 29 28 28 28 30 31 33 35 37 39 40 41 40 39 38 39 41 45 48 50 51 49 47 44 43 43 43 41 42 44 45 45 44 43 42 41 39 37 35 35 36 37
27 27 26 26 27 29 31 34 37 40 42 44 46 47 45 45 43 43 43 44 47 49 51 52 51 47 44 44 44 43 42 43 44 45 44 43 42 40 37 36 36 36 36 38
26 26 26 27 29 32 35 38 41 45 48 49 51 55 52 51 48 46 46 47 47 48 49 51 52 50 46 44 45 43 43 43 44 43 42 41 41 38 37 36 36 36 36 37
27 27 28 30 33 36 40 43 47 50 53 56 56 61 60 58 55 52 50 50 50 49 49 50 52 52 49 46 45 44 44 44 43 42 40 40 40 37 36 36 36 37 37 38
28 29 31 33 36 40 43 47 50 53 56 60 58 62 62 60 60 57 56 54 53 52 50 50 51 53 51 49 46 44 44 44 43 41 39 39 39 37 36 36 37 38 39 40
29 31 33 35 38 41 44 47 51 54 56 58 58 61 60 58 61 62 60 59 56 54 53 50 51 52 52 49 46 44 44 43 42 41 39 39 39 38 37 37 38 39 40 41
30 31 32 35 38 40 41 44 46 50 54 55 56 57 54 54 58 61 62 62 59 56 54 52 50 51 51 49 45 43 43 43 43 41 40 40 40 38 37 37 38 39 40 41
29 29 30 33 35 37 40 43 45 49 51 53 53 51 46 43 50 54 57 59 58 56 54 52 50 50 50 49 45 43 43 43 43 41 40 40 40 38 37 37 37 39 40 41
26 28 27 29 33 36 40 42 43 44 46 48 47 43 38 33 37 40 45 49 53 53 53 52 50 49 49 48 46 45 44 44 44 42 41 40 40 38 37 36 37 38 39 41
25 25 25 27 31 35 38 38 39 41 43 45 44 38 33 29 31 32 33 37 44 48 51 51 50 48 47 46 46 45 44 44 44 42 41 40 39 38 37 36 37 38 39 40
22 23 23 25 29 32 34 34 35 38 39 41 42 33 28 27 28 28 28 31 36 43 47 49 48 46 45 44 44 44 44 44 44 42 40 40 39 38 37 37 37 38 39 40
19 20 21 21 25 28 29 30 32 34 37 37 37 29 24 22 24 26 28 30 33 39 44 46 46 44 42 41 41 42 43 44 43 41 39 39 39 38 38 38 38 39 39 40
17 17 18 19 23 26 26 26 27 30 32 31 27 21 17 19 21 25 26 26 30 36 41 43 42 41 40 39 40 41 42 42 41 39 38 38 38 38 38 38 39 39 40 41
13 12 14 16 19 20 21 21 21 22 23 22 16 15 11 14 17 19 18 22 26 33 37 39 38 38 37 37 37 39 39 39 38 37 37 37 37 37 38 39 39 40 40 40
9 8 9 11 13 14 15 16 17 17 16 14 10 6 7 10 11 12 15 20 25 30 33 34 34 34 34 34 34 35 35 35 34 34 35 35 36 37 38 39 39 38 39 40
5 4 5 6 9 11 13 14 14 13 11 9 6 3 2 4 8 14 18 22 25 27 30 31 30 30 30 31 31 31 31 32 31 32 33 34 36 37 36 36 36 36 37 40
3 1 4 6 8 12 12 12 11 11 10 8 8 8 9 11 15 17 20 23 23 25 26 27 27 27 27 27 27 28 28 28 29 31 32 33 33 32 32 32 33 35 38 42
4 1 4 7 9 10 11 12 12 11 10 10 11 12 14 15 17 20 21 21 22 22 22 23 23 23 23 23 23 23 25 26 27 28 28 28 28 29 30 32 34 37 41 44
5 2 3 6 7 9 10 10 11 12 12 12 12 12 13 13 14 16 17 19 21 21 20 20 21 21 21 21 21 22 23 23 24 24 25 26 27 28 30 33 36 40 43 46
7 4 3 4 4 5 6 8 9 11 11 11 10 9 10 11 12 13 13 14 15 16 17 18 18 18 18 18 19 19 19 20 21 22 23 25 27 29 32 35 39 41 43 46
10 8 5 3 2 0 2 4 5 7 8 9 8 8 8 8 8 9 10 10 11 12 13 13 13 14 14 15 15 16 16 17 19 20 23 25 28 31 34 37 39 41 44 46
14 12 9 7 5 3 2 2 2 3 4 4 5 4 4 3 3 4 5 6 7 8 8 9 9 10 11 12 13 14 15 17 19 21 24 27 29 32 35 37 39 42 44 47
17 15 13 11 9 8 6 5 5 5 4 4 3 3 2 1 1 1 2 4 5 6 7 8 9 10 10 11 13 14 16 17 19 22 25 28 30 33 35 37 40 42 45 47
19 19 17 15 13 12 10 9 8 7 6 6 5 5 4 3 3 3 4 5 6 6 7 8 9 9 10 11 12 14 16 18 21 24 27 30 32 34 36 39 41 43 45 45
21 20 19 17 15 14 13 12 11 10 9 8 7 6 5 4 4 4 5 5 6 7 7 8 9 9 10 11 13 16 19 22 25 27 29 31 33 35 37 40 41 42 43 45
Wind_Direction
221 224 227 231 234 238 242 247 250 253 256 257 260 263 264 262 261 259 255 253 252 251 249 249 249 247 245 246 247 246 246 249 251 253 255 257 260 261 263 262 261 260 260 259
221 224 229 235 240 246 250 253 255 257 259 260 262 263 266 265 264 261 257 253 252 250 249 248 249 248 246 246 247 247 245 247 249 251 253 256 258 261 263 263 261 261 260 258
225 229 236 242 247 252 257 261 263 264 264 265 265 263 262 262 263 262 261 257 252 250 248 247 246 246 246 245 247 247 246 247 249 251 253 255 257 260 261 261 259 259 260 259
233 237 244 251 258 262 265 266 268 269 269 268 268 268 263 263 261 260 260 258 255 250 247 245 244 244 244 244 245 246 246 247 249 251 253 255 257 258 257 257 258 260 261 261
241 247 254 261 266 269 271 272 273 273 273 272 271 270 267 266 262 258 256 256 255 252 246 243 241 241 241 242 243 244 244 245 248 250 253 255 258 258 258 259 259 260 261 263
249 256 262 267 271 273 275 276 276 275 275 274 273 272 269 267 265 260 255 252 251 251 247 241 239 239 238 239 240 241 242 244 247 250 253 256 259 260 260 260 260 261 263 265
254 261 267 271 274 277 279 279 279 278 277 277 275 272 271 268 265 262 257 251 247 246 245 241 237 236 237 238 239 239 240 243 246 248 251 255 259 261 262 262 263 263 264 266
256 262 268 273 277 280 281 281 282 283 283 283 280 278 276 271 266 263 259 252 246 242 241 240 235 233 234 234 235 236 237 240 244 246 250 254 259 261 263 264 264 264 265 267
258 264 271 277 281 283 284 285 286 286 286 285 285 285 281 275 267 263 259 253 246 239 236 236 234 231 231 232 232 233 234 237 241 244 248 253 258 261 263 264 265 265 267 269
262 271 276 282 285 286 287 289 292 292 291 290 288 286 286 278 267 262 258 252 244 236 231 231 230 229 229 229 229 229 231 235 239 242 246 251 257 260 263 265 266 267 269 271
268 275 280 283 286 288 291 294 295 294 293 292 291 289 286 276 266 260 254 246 239 231 225 224 225 225 226 227 228 229 231 234 237 240 244 250 255 260 263 265 267 269 271 275
271 276 282 286 289 291 294 297 296 295 295 293 291 292 287 276 263 257 248 237 230 222 218 218 220 221 222 224 226 228 229 232 235 238 242 248 254 259 262 265 268 271 274 279
272 281 287 289 292 294 297 299 299 298 295 294 293 295 287 273 257 248 237 228 222 213 210 212 214 216 218 220 223 225 227 230 233 237 242 249 255 259 263 266 270 273 277 281
274 285 292 297 300 304 308 307 305 302 300 299 298 293 277 266 250 239 229 219 214 205 203 205 208 211 213 215 218 221 225 228 232 237 243 250 255 260 265 269 272 276 279 282
275 285 293 298 303 311 317 319 316 312 309 306 303 288 262 249 239 229 214 202 201 196 195 197 201 205 207 210 215 219 223 227 232 238 245 252 259 264 268 271 273 277 280 282
276 293 304 309 317 329 332 331 331 330 324 320 315 294 252 234 217 198 184 183 181 182 185 187 192 197 201 206 212 217 223 228 235 242 250 257 262 265 268 271 274 277 279 282
275 311 333 336 348 356 355 346 343 347 347 346 353 38 126 156 162 154 156 158 163 169 173 177 183 189 196 203 210 217 224 231 239 246 253 258 261 265 268 271 273 276 280 283
245 324 25 33 30 29 16 9 9 16 24 43 61 79 105 126 136 141 141 145 152 157 165 172 179 188 196 204 212 220 229 237 244 250 254 259 262 264 266 270 274 278 282 286
202 134 64 59 54 50 40 33 33 40 52 68 75 87 101 110 118 130 141 147 150 158 166 176 184 192 200 208 216 224 232 238 244 249 252 256 259 263 268 272 276 281 286 290
194 161 96 83 77 68 58 51 50 58 68 75 81 87 96 107 118 128 138 148 156 164 172 181 189 196 204 211 218 225 232 237 242 247 252 257 261 266 271 277 282 287 291 294
208 201 164 124 96 77 67 62 60 65 67 70 76 82 92 101 107 120 133 148 160 169 178 185 192 197 203 208 215 221 229 236 243 250 256 262 268 275 281 285 289 292 294 296
215 218 212 197 186 69 62 57 49 52 56 58 63 70 85 93 106 120 129 140 155 164 170 177 185 192 199 208 216 225 234 243 252 260 268 275 281 285 288 291 293 295 296 298
220 224 229 233 238 252 265 305 348 7 17 31 46 55 64 77 102 123 136 147 160 171 178 186 195 202 211 220 230 240 250 260 269 277 282 286 289 291 292 294 295 297 299 301
226 230 235 239 242 248 256 270 285 300 312 322 338 346 346 338 274 237 223 216 209 211 214 218 223 229 236 246 256 264 271 279 284 287 290 292 293 294 295 297 299 300 302 304
232 236 240 242 244 246 250 257 265 275 282 289 295 296 296 291 276 265 257 241 235 234 235 239 245 252 261 269 275 281 287 290 292 293 294 295 296 297 298 300 302 304 305 307
237 239 242 245 245 244 244 247 253 259 264 271 277 278 275 276 280 273 265 256 250 248 251 256 261 267 273 280 285 290 293 295 296 297 298 298 299 301 302 304 305 307 308 309